Flag for Spain Weather past 2 weeks in Zaragoza, Spain

Now
63 °F

Clear.


Feels Like: 63 °F
Forecast: 60 / 84 °F
Wind: 6 mph from East

Location: Zaragoza / Aeropuerto

Current Time: Sep 17, 2014 at 8:32:34 AM

Latest Report: Sep 17, 2014 at 7:30 AM


Visibility: 10 mi

Pressure: 29.74 "Hg

Humidity: 94%

Dew point: 61 °F

Location of ZaragozaLocation

Historic Weather in Zaragoza — Graph

°F

Zaragoza temperature yesterday

Maximum temperature yesterday: 86 °F (at 3:00 PM)
Minimum temperature yesterday: 66 °F (at 3:00 AM)
Average temperature yesterday: 74 °F

Past Weeks' High & Low Weather Summary

 TemperatureHumidityPressure
High93 °F (Sep 2, 5:30 PM)94% (Sep 7, 8:30 AM)30.07 "Hg (Sep 7, 8:30 AM)
Low63 °F (Sep 3, 7:30 AM)12% (Sep 2, 5:30 PM)29.65 "Hg (Sep 16, 7:00 PM)
Average76 °F56%29.92 "Hg
* Reported Sep 2 7:00 AM — Sep 17 7:30 AM, Zaragoza, Weather by CustomWeather, © 2014

Note: Actual official high and low records may vary slightly from our data, if they occured in-between our weather recording intervals... More about our weather records

Advertising

Zaragoza weather history for previous 24 hours

 ConditionsComfort  
Time TempWeatherWind HumidityBarometerVisibility
7:30 AM
Sep 17
63 °FClear.6 mph94%29.74 "Hg10 mi
7:00 AM64 °FClear.2 mph83%29.74 "Hg10 mi
6:30 AM64 °FPassing clouds.5 mph83%29.74 "HgN/A
6:00 AM64 °FClear.6 mph83%29.74 "Hg10 mi
5:30 AM64 °FClear.8 mph88%29.74 "Hg10 mi
5:00 AM64 °FClear.7 mph88%29.77 "Hg10 mi
4:30 AM66 °FPassing clouds.7 mph78%29.77 "HgN/A
4:00 AM66 °FPassing clouds.7 mph78%29.77 "HgN/A
3:30 AM68 °FClear.12 mph73%29.77 "Hg10 mi
3:00 AM68 °FPassing clouds.13 mph78%29.77 "HgN/A
2:30 AM68 °FClear.13 mph78%29.80 "Hg10 mi
2:00 AM68 °FClear.14 mph73%29.80 "Hg10 mi
1:30 AM68 °FPassing clouds.10 mph78%29.80 "HgN/A
1:00 AM68 °FPassing clouds.7 mph73%29.80 "HgN/A
12:30 AM68 °FPassing clouds.10 mph73%29.80 "HgN/A
12:00 AM66 °FPassing clouds.13 mph78%29.77 "HgN/A
11:30 PM
Sep 16
68 °FPassing clouds.12 mph73%29.77 "HgN/A
11:00 PM70 °FPassing clouds.12 mph64%29.77 "HgN/A
10:30 PM68 °FPassing clouds.14 mph78%29.74 "HgN/A
10:00 PM70 °FPassing clouds.12 mph69%29.74 "HgN/A
9:30 PM70 °FLight rain. Partly cloudy.9 mph73%29.74 "HgN/A
9:00 PM73 °FSprinkles. Broken clouds.25 mph57%29.74 "HgN/A
8:30 PM81 °FPartly sunny.6 mph45%29.71 "HgN/A
8:00 PM82 °FPartly sunny.8 mph40%29.71 "HgN/A
7:30 PM82 °FScattered clouds.23 mph42%29.65 "HgN/A
7:00 PM82 °FPassing clouds.20 mph45%29.65 "HgN/A
6:30 PM81 °FScattered clouds.15 mph45%29.68 "HgN/A
6:00 PM79 °FThunderstorms. Scattered clouds.18 mph54%29.68 "HgN/A
5:30 PM81 °FThunderstorms. Scattered clouds.21 mph51%29.68 "HgN/A
5:00 PM84 °FPassing clouds.24 mph40%29.68 "HgN/A
4:30 PM86 °FPassing clouds.21 mph35%29.71 "HgN/A
4:00 PM86 °FPassing clouds.22 mph38%29.71 "HgN/A
3:30 PM84 °FPassing clouds.20 mph43%29.74 "HgN/A
3:00 PM86 °FPassing clouds.22 mph43%29.77 "HgN/A
2:30 PM84 °FPassing clouds.20 mph45%29.77 "HgN/A
2:00 PM82 °FPassing clouds.18 mph48%29.80 "HgN/A
1:30 PM82 °FPassing clouds.15 mph48%29.80 "HgN/A
1:00 PM81 °FPassing clouds.14 mph51%29.83 "HgN/A
12:30 PM79 °FPassing clouds.15 mph54%29.86 "HgN/A
12:00 PM77 °FPassing clouds.14 mph61%29.86 "HgN/A
11:30 AM75 °FPassing clouds.13 mph65%29.86 "HgN/A
11:00 AM73 °FScattered clouds.13 mph69%29.89 "HgN/A
10:30 AM72 °FPartly sunny.12 mph73%29.89 "HgN/A
10:00 AM70 °FPartly sunny.10 mph78%29.89 "HgN/A
9:30 AM70 °FBroken clouds.12 mph78%29.89 "Hg6 mi
9:00 AM68 °FBroken clouds.12 mph83%29.89 "Hg5 mi
8:30 AM68 °FPartly cloudy.12 mph83%29.89 "Hg5 mi
8:00 AM68 °FPassing clouds.12 mph83%29.86 "Hg5 mi
Weather by CustomWeather, © 2014

See weather overviewHow to use our weather pages